Погода в Терразини

Италия     38°09′06″N   13°05′02″E
темп.,
°C
ветер,
м/с
пор.,
м/с
влажн.,
%
обл.,
%
осадки,
мм/ч
давл.,
гПа
погр.,
м
12 мая, ср
ср1223:00+18зюз7108321 0.0 1017663
02:00+17зюз787913 0.0 1015693
05:00+17з78770 0.2 1015879
08:00+17зсз887514 0.5 10161038
11:00+17зсз876925 0.3 10171094
14:00+17зсз56650 0.3 10171078
17:00+17зсз55650 0.0 1016949
20:00+17з556812 0.0 1016677
13 мая, чт
чт1323:00+17зюз6770100 0.0 1016666
02:00+17юз67730 0.0 1015483
05:00+17юз68745 0.0 1013495
08:00+17юз710755 0.0 1014707
11:00+18зюз810785 0.0 1014676
14:00+18з912780 0.0 1014655
17:00+18з912790 0.0 1013591
20:00+18зюз68795 0.1 1013339
14 мая, пт
пт1423:00+18юз68800 0.0 1014488
02:00+17ююз77864 0.0 1013483
05:00+17ююз66814 0.0 1013625
08:00+17юз55793 0.0 1015478
11:00+18зсз3371100 0.0 1015217
14:00+19з68735 0.0 1014140
17:00+20зсз2272100 0.0 101274
20:00+20ююз696338 0.0 1012133
15 мая, сб
сб1523:00+19ююз576896 0.0 1012150
02:00+18зюз1113784 0.3 10131095
05:00+17зсз10107154 0.3 10141200
08:00+17з7868100 0.3 1015795
11:00+17з10106870 0.0 1016891
14:00+18зсз8968100 0.0 1017871
17:00+18зсз5106531 0.0 10171108
20:00+18з68735 0.0 1016652
16 мая, вс
вс1623:00+18зюз6874100 0.0 1017666
02:00+17юз6875100 0.0 1016520
05:00+17юз56785 0.0 1016387
08:00+17ююз55755 0.0 1016302
11:00+18з45735 0.0 1016246
14:00+18з79795 0.0 1016368
17:00+19з45802 0.0 1016227
20:00+19ю12761 0.0 101515